Location: Oshawa
(43.9000°N, 78.8670°W)
Time: 15:17:12
(UTC-04:00)

Cosmos 1408 Rocket - Visible Passes

Search period start: 27 June 2017 00:00
Search period end: 07 July 2017 00:00
Orbit: 601 x 631 km, 82.6° (Epoch: 26 June)

Date Brightness Start Highest point End Pass type
(mag) Time Alt. Az. Time Alt. Az. Time Alt. Az.
27 Jun 4.2 21:35:41 10° SSE 21:39:38 37° E 21:43:38 10° NNE visible
27 Jun 6.0 23:14:24 10° WSW 23:17:35 20° WNW 23:20:48 10° NNW visible
28 Jun 3.5 21:51:45 10° S 21:56:00 69° E 22:00:20 10° NNE visible
28 Jun 6.5 23:32:49 10° W 23:34:20 12° WNW 23:35:51 10° NW visible
29 Jun 4.0 22:08:12 10° SSW 22:12:28 64° W 22:16:48 10° N visible
30 Jun 5.1 22:25:04 10° SW 22:29:02 35° WNW 22:33:02 10° N visible
01 Jul 6.1 22:42:25 10° WSW 22:45:41 21° WNW 22:48:58 10° NNW visible
02 Jul 6.6 23:00:43 10° W 23:02:26 12° WNW 23:04:09 10° NW visible
03 Jul 4.0 21:36:17 10° SSW 21:40:34 67° W 21:44:55 10° N visible
04 Jul 5.2 21:53:07 10° SW 21:57:07 36° WNW 22:01:11 10° N visible
05 Jul 6.2 22:10:27 10° WSW 22:13:46 21° WNW 22:17:08 10° NNW visible
06 Jul 6.7 22:28:38 10° W 22:30:31 13° WNW 22:32:25 10° NW visible
